FREGAT DEB, 45971

Orbit data source: Space-Track

FREGAT DEB, 45971 is space debris in LEO originally from a launch on Mon, 18 Jul 2011 UTC launched from the Tyuratam Missile And Space Complex (TTMTR). Debris objects in space refer to the collection of defunct objects orbiting the Earth. Examples of debris include non-operational satellites, rocket bodies, and fragments generated from explosions, collisions, or faulty payload assembly.

Loading next visibility...
Identifier
45971, 2011-037GC
Orbit
LEO
Country
Flag of CISCIS
Related business
Manufacturer
Lavochkin
Mission
Spacecraft
Bus & Motor
Unknown
Mass
Unknown
Launch date (UTC)
2011-07-18 (15 years ago)
Launch vehicle
Unknown
Launch site
Tyuratam Missile And Space Complex (TTMTR)
Object type
Payload
Rocket body
Debris
Shape & HBR
Unknown shape, 0.1 m
Radar Cross Section
Small (<0.1 m²)

Expand to show TLE details & history
Last TLE update: 3 days ago

TLE from 3 days ago
0 FREGAT DEB
1 45971U 11037GC  26092.75098940  .00018656  00000-0  17531-2 0  9994
2 45971  51.4588 262.4600 1126272 351.6051   6.7303 13.04406123258885
Epoch: 2026-04-02T18:01Z
TLE epoch observation values (Epoch: 2026-04-02T18:01:25.484Z)
Latitude
-0.00002°
Longitude
161.00882°
Altitude
394.514 km
Speed
8.091 km/s
True Right ascension
17h 29m 50s
True Declination
0° 00' 00"
Sunlit
Object was in partial shadow at epoch
Visualization orbit readout
Latitude
Unknown
Longitude
Unknown
Altitude
Unknown
Speed
Unknown
Apparent Right ascension
Unknown
Apparent Declination
Unknown
Sunlit
N/A
Visualization observer readout
Local Sidereal Time
14:10:07
Azimuth
Unknown
Elevation
Unknown
Doppler factor
Unknown
Orbital elements
Apogee altitude
2,103.979 km
Perigee altitude
386.751 km
Semi-major axis
7,623.502 km
Eccentricity
0.11263
Inclination
51.4588°
RAAN
262.46°
Arg. of periapsis
351.6051°
True anomaly
8.4865°
Mean anomaly
6.7303°
Eccentric anomaly
7.58172°
Mean motion
3.2607 °/min
Orbital period
110.41 mins
BSTAR
0.0017531
Loading maneuver chart data...
Computing Atmospheric mass density...
Loading historical data...
Loading historical data...
Loading historical data...
Loading historical data...
Loading historical data...
Loading historical data...
Loading historical data...

Documentation

Showing up to 5 results
|